Wind_Speed
27 26 26 26 26 27 25 22 20 18 18 19 19 22 23 23 28 32 32 35 38 39 39 39 43 46 51 53 50 50 47 43 42 42 43 42 41 39 36 37 38 35 30 21
27 26 25 25 26 24 21 19 18 18 17 18 18 19 20 20 24 29 33 35 38 38 40 40 41 44 49 51 50 50 48 47 44 43 44 43 45 43 38 39 36 35 32 19
28 27 25 25 25 22 20 19 18 20 19 19 19 19 18 18 20 26 30 35 38 42 37 42 41 43 45 48 49 49 47 48 48 49 48 49 49 47 42 42 41 35 32 20
28 27 26 25 24 22 20 20 19 19 20 19 19 20 19 17 21 24 29 35 39 38 42 40 42 42 44 43 45 47 50 55 50 48 48 48 48 48 44 41 37 34 24 25
29 28 26 26 24 22 21 20 20 20 21 21 22 22 22 20 21 25 29 32 39 44 42 38 44 44 41 44 43 50 46 56 56 50 46 49 53 52 47 42 39 37 30 31
28 27 27 27 25 23 23 23 22 22 22 24 24 24 25 25 23 26 30 31 35 45 46 50 30 45 46 40 43 45 52 54 54 55 48 48 54 54 50 48 46 43 36 32
29 29 29 29 29 28 26 26 26 25 25 25 26 27 26 27 29 27 31 33 35 41 48 51 52 34 45 45 39 44 46 49 51 53 52 53 55 49 48 46 45 45 41 33
31 32 32 33 33 33 33 32 31 30 29 28 29 29 29 30 31 31 32 34 37 37 43 48 53 53 40 40 45 39 42 45 48 50 54 58 60 54 50 47 46 44 41 39
34 35 36 38 39 39 40 39 39 36 34 33 31 31 31 31 33 34 34 37 37 37 37 44 52 56 47 42 44 43 41 42 45 49 52 52 54 54 50 43 45 41 38 35
38 40 42 43 44 43 43 43 42 40 36 35 34 32 32 32 33 35 36 38 39 38 36 38 44 54 59 50 47 43 42 43 47 47 47 48 47 51 50 50 49 40 36 33
43 44 44 44 41 41 40 37 38 37 33 30 31 30 28 27 31 32 34 37 40 39 37 37 35 45 55 63 49 50 50 46 46 48 49 49 42 42 43 44 46 43 40 38
46 46 41 37 34 34 35 31 29 28 25 25 28 28 24 23 28 28 29 33 40 39 39 39 35 21 39 56 62 55 48 46 46 47 46 46 41 45 40 37 37 42 41 35
41 38 35 33 32 31 29 26 23 21 18 18 22 22 23 22 22 23 23 30 37 43 41 42 41 32 26 41 55 60 56 46 44 40 44 43 37 39 42 41 38 37 34 38
35 34 33 33 31 28 24 21 18 15 14 16 18 18 20 20 22 22 23 27 33 42 47 44 47 42 42 37 46 54 58 60 45 49 50 40 38 48 43 42 39 38 37 36
35 33 33 31 27 20 19 19 15 15 14 12 11 14 15 12 16 19 21 25 29 37 46 48 46 48 45 36 39 41 51 55 57 51 54 48 47 41 42 42 42 40 37 36
29 27 24 22 23 16 13 20 13 11 14 13 9 14 15 14 16 15 17 19 23 26 39 49 51 48 48 41 36 39 44 48 53 56 53 49 53 53 53 48 42 43 43 40
23 20 22 24 18 12 10 9 12 13 16 14 7 12 13 16 12 8 14 15 23 24 25 37 50 53 51 51 37 31 35 39 49 49 47 40 51 44 41 37 39 38 41 42
23 19 16 19 12 9 12 10 14 16 14 11 9 9 13 13 7 5 7 12 17 21 22 23 37 52 55 54 44 41 28 34 42 48 52 52 46 56 47 42 44 38 38 41
19 16 16 15 10 10 12 11 12 14 12 11 9 10 10 11 11 10 9 6 11 15 17 18 29 41 52 50 43 46 31 35 35 36 48 55 52 50 51 43 41 44 39 37
14 16 15 15 11 13 13 13 14 12 7 8 9 9 13 15 12 16 12 1 6 12 9 15 19 31 47 51 48 45 44 33 27 34 30 35 50 58 51 44 45 42 39 37
15 14 14 15 11 10 10 6 5 4 5 6 7 9 12 12 14 16 18 11 5 8 9 7 8 16 30 44 49 47 42 45 43 42 35 33 32 38 49 47 45 44 40 41
15 14 13 14 13 14 10 4 2 1 5 5 5 6 11 6 10 13 17 7 3 6 4 3 3 3 13 29 42 48 47 44 47 45 38 39 34 33 40 46 34 39 43 46
17 12 13 13 9 3 2 3 4 6 6 6 2 2 8 9 8 8 16 5 7 9 6 1 2 3 4 13 28 39 43 48 46 47 47 44 40 38 36 37 43 39 43 54
9 8 12 6 2 2 3 4 4 4 8 10 8 7 5 7 3 7 11 9 2 1 2 3 3 4 3 6 13 21 28 42 47 47 46 40 42 42 43 41 44 49 39 41
6 3 4 4 2 2 4 6 7 9 8 9 10 10 9 8 7 5 12 11 4 2 2 2 2 4 5 2 7 14 17 27 39 46 45 45 47 47 45 43 44 45 49 46
9 7 2 2 5 6 6 6 10 12 10 9 7 9 10 6 9 8 6 7 10 9 8 7 6 6 4 5 4 6 11 18 26 34 45 53 52 50 49 50 48 46 47 53
3 4 5 6 9 8 9 13 15 14 15 14 13 10 15 13 7 5 11 14 16 12 11 12 14 14 11 13 12 12 13 12 13 18 28 37 44 52 56 55 54 54 53 54
Wind_Direction
314 311 307 305 305 303 299 293 284 277 271 265 258 252 246 243 238 229 224 220 219 220 216 217 216 214 213 214 212 215 218 215 217 224 223 222 228 235 240 240 240 243 243 225
317 313 310 311 311 307 302 296 290 281 274 269 264 262 256 247 240 234 224 220 213 218 215 216 216 216 214 216 212 213 211 216 214 220 220 218 222 226 229 238 239 242 241 222
320 315 312 313 313 308 305 300 293 283 276 270 266 261 259 251 246 240 229 221 218 216 215 219 218 219 219 217 213 212 211 217 216 223 223 220 220 222 225 230 233 236 232 211
319 316 312 311 312 308 305 303 297 287 282 275 269 263 257 248 241 239 233 224 220 218 210 217 220 219 221 219 216 211 210 216 213 216 218 220 226 229 228 231 235 236 231 221
317 315 311 310 311 308 305 301 298 291 284 277 273 267 259 245 238 236 235 228 223 217 214 209 218 221 220 222 217 214 211 218 216 215 219 219 223 226 228 229 229 234 229 223
317 314 310 308 307 305 302 299 296 293 287 279 273 268 263 256 239 236 236 232 224 221 215 212 206 221 221 222 218 217 216 218 221 216 217 224 226 223 225 227 230 236 232 225
316 312 308 305 304 303 300 297 295 293 290 283 277 271 264 259 252 237 234 233 229 224 221 215 215 208 225 224 216 215 220 225 225 221 218 222 222 225 229 229 230 233 234 232
314 310 306 303 302 301 299 296 294 291 289 283 279 273 268 262 255 245 236 231 232 228 225 220 218 216 207 224 226 221 218 223 228 230 223 222 227 223 226 226 228 231 232 229
312 308 305 302 299 297 295 292 291 289 286 285 279 276 269 262 257 250 237 235 231 231 227 224 219 219 214 201 221 225 221 222 226 231 229 230 228 231 228 229 231 230 234 232
310 307 304 300 298 294 292 289 287 284 283 282 278 274 269 263 255 249 241 231 231 230 226 227 224 218 220 218 202 219 223 222 224 228 234 234 237 236 234 234 232 233 236 234
309 308 305 301 300 296 292 289 283 279 276 270 270 270 265 258 255 249 243 232 228 226 225 223 225 225 220 221 216 203 207 221 223 225 230 238 237 239 239 239 243 235 235 235
312 310 309 308 305 302 299 293 285 277 271 261 258 257 260 251 253 254 244 236 226 222 220 221 214 217 230 221 222 215 205 208 217 225 228 236 240 240 238 241 239 238 230 228
313 313 311 307 307 310 301 293 282 275 269 256 254 257 256 252 256 259 254 239 226 219 217 216 207 199 229 226 223 228 217 225 213 210 223 225 232 239 239 239 242 244 239 236
315 311 308 310 311 306 296 288 282 271 275 254 261 259 262 261 259 260 254 242 230 220 218 216 213 214 223 232 224 225 228 225 229 222 216 216 232 236 237 240 240 241 241 234
314 309 309 310 308 307 309 295 283 275 277 253 277 271 278 277 274 266 255 240 235 225 219 216 215 215 217 218 227 224 226 232 231 218 229 227 230 230 235 235 238 240 239 236
316 315 321 309 309 287 302 278 287 276 285 273 267 280 290 290 287 273 248 235 228 235 227 220 217 215 216 221 227 226 225 225 230 234 236 238 239 239 241 243 242 238 242 239
317 315 301 306 302 291 280 283 283 270 271 276 278 297 300 296 296 269 243 235 229 235 237 228 221 218 219 213 215 220 224 227 225 228 223 225 228 231 238 234 236 239 240 240
311 316 305 315 300 284 279 271 273 256 267 275 276 288 276 289 268 240 263 255 245 241 245 242 232 222 221 217 218 224 224 227 226 223 221 220 222 220 223 228 229 228 232 235
303 306 307 322 303 282 273 268 277 274 281 275 275 282 255 258 229 227 239 241 256 262 263 264 243 229 221 217 220 225 210 225 225 225 227 225 222 227 229 232 233 222 227 232
290 290 307 325 297 285 278 267 264 277 273 278 267 277 299 271 241 223 211 154 287 263 278 267 261 234 225 220 216 215 205 203 219 216 217 228 232 233 240 240 239 236 233 232
286 280 284 320 289 284 307 298 301 317 242 262 255 284 296 282 245 226 217 249 287 284 277 297 253 236 230 226 219 216 219 219 218 207 218 217 226 233 233 236 235 233 230 227
275 283 279 304 297 277 274 231 274 305 224 217 273 355 346 310 234 245 225 232 265 287 267 300 198 217 221 225 225 223 222 222 226 228 230 222 220 228 233 225 220 233 224 219
261 288 282 301 304 285 328 272 237 214 232 252 10 315 336 326 239 236 211 215 235 254 233 228 196 143 211 220 222 226 230 227 228 231 235 230 232 231 231 230 223 219 227 222
272 286 284 314 210 270 308 228 227 246 271 282 293 270 289 354 306 230 241 238 154 112 253 262 316 334 335 215 225 225 226 228 229 231 237 241 243 244 242 229 229 221 212 219
275 297 116 130 168 226 270 276 277 289 300 306 287 267 272 242 289 242 241 241 200 229 292 304 276 311 328 253 209 208 219 229 235 235 238 239 239 238 239 240 233 231 232 212
101 91 70 272 257 270 272 273 284 287 275 299 273 260 215 259 253 231 237 253 241 253 256 263 268 269 258 253 267 244 231 233 235 239 243 241 239 240 245 246 244 243 238 238
18 336 318 291 264 267 267 280 280 270 277 282 280 268 245 255 273 270 257 252 235 230 246 266 265 265 259 245 253 261 261 252 249 250 247 245 248 250 250 247 246 245 244 243
Height
5540 5537 5535 5532 5530 5526 5524 5523 5522 5521 5522 5523 5523 5523 5525 5527 5528 5532 5537 5544 5549 5556 5565 5570 5576 5583 5591 5598 5607 5614 5623 5630 5637 5644 5649 5656 5662 5666 5672 5674 5676 5682 5687 5694
5535 5532 5530 5527 5524 5522 5520 5518 5517 5517 5518 5517 5518 5519 5520 5522 5524 5526 5531 5536 5542 5548 5557 5564 5570 5576 5582 5588 5599 5607 5614 5619 5628 5634 5642 5647 5651 5657 5663 5668 5674 5676 5682 5692
5530 5528 5525 5522 5520 5518 5516 5515 5513 5512 5512 5512 5513 5514 5515 5517 5519 5521 5526 5530 5536 5542 5551 5557 5563 5570 5577 5583 5591 5598 5605 5611 5620 5627 5634 5639 5643 5648 5656 5662 5665 5670 5675 5686
5526 5523 5520 5518 5516 5514 5513 5510 5509 5507 5507 5507 5507 5508 5510 5513 5514 5516 5519 5523 5529 5535 5544 5551 5557 5564 5571 5576 5583 5588 5595 5601 5610 5619 5626 5633 5638 5644 5649 5654 5661 5665 5674 5679
5521 5518 5516 5513 5512 5509 5508 5506 5504 5503 5502 5501 5501 5502 5504 5506 5509 5510 5513 5517 5522 5529 5536 5542 5549 5555 5562 5568 5574 5580 5587 5594 5601 5610 5618 5623 5627 5634 5641 5648 5654 5657 5665 5669
5516 5513 5511 5508 5507 5505 5503 5501 5500 5498 5497 5495 5496 5496 5497 5499 5502 5504 5506 5510 5514 5519 5527 5535 5541 5547 5553 5560 5566 5574 5580 5586 5592 5600 5608 5613 5615 5624 5632 5639 5645 5650 5656 5664
5511 5508 5505 5503 5500 5499 5497 5495 5493 5492 5490 5489 5489 5488 5490 5491 5493 5497 5498 5502 5506 5512 5517 5526 5532 5540 5546 5552 5558 5565 5572 5578 5585 5591 5597 5600 5608 5619 5625 5633 5640 5644 5650 5657
5505 5502 5498 5495 5493 5491 5488 5487 5485 5484 5482 5482 5480 5481 5481 5482 5483 5488 5491 5494 5498 5503 5508 5517 5524 5531 5537 5544 5551 5558 5564 5570 5576 5580 5587 5596 5598 5609 5615 5621 5630 5636 5642 5648
5499 5495 5491 5487 5483 5481 5478 5476 5474 5474 5473 5472 5472 5471 5471 5473 5474 5477 5482 5485 5489 5494 5501 5506 5513 5521 5530 5534 5541 5550 5557 5562 5568 5573 5580 5584 5592 5601 5610 5617 5620 5630 5636 5641
5491 5486 5481 5476 5472 5468 5466 5463 5462 5461 5462 5460 5460 5461 5462 5462 5464 5466 5471 5475 5480 5485 5491 5497 5504 5512 5519 5525 5533 5542 5547 5553 5559 5566 5571 5578 5585 5592 5600 5605 5616 5622 5628 5634
5481 5475 5470 5464 5459 5454 5452 5449 5447 5448 5450 5449 5449 5450 5452 5453 5453 5456 5460 5466 5470 5477 5483 5489 5495 5501 5509 5516 5523 5532 5538 5546 5553 5559 5565 5570 5577 5583 5591 5600 5602 5614 5619 5625
5469 5463 5457 5453 5448 5443 5439 5438 5436 5436 5438 5440 5439 5440 5443 5445 5445 5448 5450 5455 5460 5468 5474 5480 5488 5494 5497 5507 5515 5520 5530 5536 5546 5553 5558 5561 5567 5574 5583 5588 5595 5600 5610 5615
5458 5452 5448 5444 5441 5436 5432 5430 5428 5429 5431 5433 5432 5434 5436 5437 5439 5440 5443 5445 5450 5458 5464 5471 5478 5486 5491 5495 5502 5510 5518 5526 5534 5542 5547 5552 5559 5565 5572 5579 5586 5592 5600 5607
5449 5444 5440 5437 5433 5429 5426 5425 5424 5425 5426 5427 5428 5428 5429 5431 5432 5433 5435 5437 5441 5447 5454 5461 5468 5476 5480 5486 5493 5501 5507 5516 5525 5533 5538 5544 5549 5557 5564 5569 5577 5584 5590 5596
5441 5437 5433 5429 5426 5424 5422 5422 5422 5422 5423 5424 5424 5424 5425 5427 5427 5427 5427 5430 5433 5437 5444 5451 5458 5466 5474 5480 5485 5492 5499 5506 5514 5522 5527 5535 5540 5548 5554 5561 5568 5574 5580 5586
5434 5430 5426 5424 5421 5419 5417 5419 5420 5419 5418 5420 5422 5421 5421 5421 5421 5420 5421 5424 5427 5430 5433 5441 5449 5456 5464 5470 5476 5484 5490 5496 5502 5510 5519 5527 5534 5540 5545 5551 5558 5564 5570 5576
5429 5426 5422 5420 5417 5416 5416 5417 5417 5417 5416 5416 5418 5417 5418 5417 5417 5417 5418 5420 5423 5424 5427 5433 5439 5446 5449 5459 5469 5476 5482 5488 5494 5501 5510 5517 5525 5533 5536 5541 5547 5554 5559 5566
5424 5421 5419 5416 5413 5413 5413 5412 5413 5413 5413 5414 5415 5416 5416 5416 5416 5416 5416 5417 5418 5420 5423 5426 5429 5434 5441 5451 5465 5468 5474 5481 5486 5492 5499 5507 5516 5522 5528 5531 5536 5543 5549 5554
5420 5418 5416 5413 5411 5411 5411 5410 5410 5409 5411 5410 5412 5413 5413 5413 5413 5414 5415 5416 5416 5418 5420 5421 5421 5426 5435 5451 5453 5459 5468 5475 5479 5484 5491 5498 5505 5510 5515 5520 5525 5534 5540 5544
5416 5415 5413 5411 5409 5408 5409 5408 5408 5408 5408 5408 5409 5410 5410 5410 5411 5413 5414 5414 5416 5415 5417 5416 5418 5422 5426 5434 5446 5453 5461 5467 5473 5477 5484 5489 5493 5499 5503 5508 5514 5522 5528 5533
5413 5412 5411 5410 5408 5408 5407 5407 5407 5407 5407 5407 5408 5409 5407 5406 5408 5410 5411 5413 5413 5415 5415 5415 5414 5416 5421 5428 5438 5446 5452 5459 5464 5469 5476 5481 5486 5489 5493 5500 5505 5510 5518 5523
5411 5410 5408 5408 5407 5406 5407 5407 5407 5407 5407 5407 5407 5407 5405 5404 5406 5407 5411 5412 5414 5414 5415 5415 5414 5415 5417 5422 5429 5438 5444 5451 5454 5458 5465 5472 5475 5479 5484 5491 5496 5500 5508 5515
5407 5407 5407 5406 5406 5405 5405 5406 5406 5406 5406 5406 5407 5407 5406 5405 5404 5407 5409 5412 5413 5413 5414 5415 5415 5415 5416 5418 5423 5430 5435 5442 5447 5451 5456 5461 5466 5470 5476 5480 5487 5491 5497 5505
5406 5405 5405 5404 5404 5405 5405 5406 5406 5406 5406 5406 5407 5407 5407 5406 5405 5406 5409 5412 5412 5413 5414 5415 5416 5416 5416 5416 5419 5423 5428 5432 5437 5442 5446 5451 5456 5461 5466 5471 5477 5482 5488 5494
5405 5404 5404 5405 5405 5405 5405 5405 5405 5406 5405 5405 5405 5405 5405 5405 5406 5406 5408 5410 5412 5413 5413 5414 5415 5415 5415 5415 5416 5418 5420 5423 5428 5433 5438 5442 5447 5451 5456 5461 5466 5472 5477 5481
5406 5406 5406 5406 5406 5405 5405 5405 5405 5404 5404 5404 5403 5403 5404 5404 5404 5405 5407 5409 5411 5411 5411 5413 5413 5414 5414 5414 5414 5415 5416 5418 5420 5424 5428 5431 5435 5439 5444 5449 5454 5459 5464 5468
5408 5407 5407 5406 5405 5404 5404 5403 5402 5403 5403 5402 5401 5401 5401 5402 5403 5404 5404 5405 5406 5407 5408 5410 5410 5411 5412 5412 5412 5412 5413 5414 5415 5416 5418 5420 5423 5426 5430 5435 5440 5446 5452 5457